User: anonymous   Login
Location: Unspecified
(44.0704°N, 88.6889°W)
Time: 18:42:17
(UTC+02:00)
Language:

CZ-3 Stage 3 - Orbit

View from above orbital plane
View from above orbital plane
View from above satellite
View from above satellite

Ground track
Ground track

The orbit data is extracted from the following two-line orbital elements,

1 14900U 84035B   19290.77125936 -.00000050  00000-0  63517-4 0  9997
2 14900  30.4753 115.7491 7164361  90.4532 344.4196  2.33884028234702
Epoch (UTC): 17 October 2019 18:30:36
Eccentricity: 0.7164361
inclination: 30.4753°
perigee height: 420 km
apogee height: 34771 km
right ascension of ascending node: 115.7491°
argument of perigee: 90.4532°
revolutions per day: 2.33884028
mean anomaly at epoch: 344.4196°
orbit number at epoch: 23470

The dashed part of the orbit path shows where the satellite is in the earth's shadow,  

DLR